This is the latest recevied weather packets stored in our database for station/object NK2J. If no packets are shown the sender has not sent any weather packets the latest 10 day(s).
| Time | Temp. | Humidity | Pressure | Rain* | Wind** | Luminosity | Snow |
|---|---|---|---|---|---|---|---|
| 1777707519 | 21.11° C | 29% | 1013.4 hPa | 0 mm | - | 0 W/m² | - |
| 1777707216 | 20.56° C | 29% | 1013.5 hPa | 0 mm | - | 0 W/m² | - |
| 1777706914 | 21.11° C | 29% | 1013.5 hPa | 0 mm | - | 0 W/m² | - |
| 1777706611 | 20.56° C | 30% | 1013.4 hPa | 0 mm | - | 0 W/m² | - |
| 1777706308 | 21.11° C | 29% | 1013.3 hPa | 0 mm | - | 0 W/m² | - |
| 1777706006 | 21.11° C | 29% | 1013.4 hPa | 0 mm | - | 0 W/m² | - |
| 1777705704 | 21.67° C | 29% | 1013.2 hPa | 0 mm | - | 0 W/m² | - |
| 1777705401 | 21.67° C | 28% | 1013.1 hPa | 0 mm | - | 0 W/m² | - |
| 1777705100 | 22.22° C | 28% | 1013.1 hPa | 0 mm | - | 0 W/m² | - |
| 1777704798 | 22.78° C | 27% | 1013 hPa | 0 mm | - | 0 W/m² | - |
| 1777704496 | 22.78° C | 27% | 1013.2 hPa | 0 mm | - | 0 W/m² | - |
| 1777704193 | 22.78° C | 27% | 1013.1 hPa | 0 mm | - | 0 W/m² | - |
| 1777703890 | 22.78° C | 28% | 1012.9 hPa | 0 mm | - | 0 W/m² | - |
| 1777703589 | 22.22° C | 28% | 1013 hPa | 0 mm | - | 0 W/m² | - |
| 1777703285 | 22.22° C | 29% | 1012.7 hPa | 0 mm | - | 0 W/m² | - |
| 1777702983 | 22.22° C | 29% | 1012.9 hPa | 0 mm | - | 0 W/m² | - |
| 1777702681 | 22.78° C | 28% | 1012.9 hPa | 0 mm | - | 0 W/m² | - |
| 1777702379 | 22.78° C | 27% | 1012.6 hPa | 0 mm | - | 0 W/m² | - |
| 1777702079 | 22.78° C | 27% | 1012.5 hPa | 0 mm | - | 0 W/m² | - |
| 1777701775 | 22.78° C | 27% | 1012.7 hPa | 0 mm | - | 0 W/m² | - |
| 1777701473 | 22.78° C | 27% | 1012.7 hPa | 0 mm | - | 0 W/m² | - |
| 1777701170 | 22.78° C | 28% | 1012.6 hPa | 0 mm | - | 0 W/m² | - |
| 1777700869 | 22.78° C | 28% | 1012.6 hPa | 0 mm | - | 0 W/m² | - |
| 1777700567 | 22.78° C | 29% | 1012.6 hPa | 0 mm | - | 0 W/m² | - |
| 1777700264 | 22.78° C | 28% | 1012.6 hPa | 0 mm | - | 0 W/m² | - |
* Rain latest hour (hover to see other rain measurements)
** Current wind speed in m/s (hover to see current wind gust speed)